User: anonymous
Location: Turtle Rock Observatory
(36.6913°N, 81.9708°W)
Time: 03:03:23
(UTC-04:00)
Language:

TITAN 4B R/B - Orbit

View from above orbital plane
View from above orbital plane
View from above satellite
View from above satellite

Ground track
Ground track

The orbit data is extracted from the following two-line orbital elements,

1 28647U 05016B   14243.88411561 0.00003300  00000-0  21358-3 0    08
2 28647  56.9986 188.8267 0134888 290.4496  69.5504 15.00457715    02
Epoch (UTC): 31 August 2014 21:13:07
Eccentricity: 0.0134888
inclination: 56.9986°
perigee height: 472 km
apogee height: 659 km
right ascension of ascending node: 188.8267°
argument of perigee: 290.4496°
revolutions per day: 15.00457715
mean anomaly at epoch: 69.5504°
orbit number at epoch: 0

The dashed part of the orbit path shows where the satellite is in the earth's shadow,  

DLR